This is the latest recevied weather packets stored in our database for station/object K8JCL-13. If no packets are shown the sender has not sent any weather packets the latest 10 day(s).
| Time | Temp. | Humidity | Pressure | Rain* | Wind** | Luminosity | Snow |
|---|---|---|---|---|---|---|---|
| 1777653933 | 10.56° C | 79% | 1013.6 hPa | 0 mm | - | 264 W/m² | - |
| 1777653629 | 10.56° C | 77% | 1013.6 hPa | 0 mm | - | 820 W/m² | - |
| 1777653326 | 10° C | 80% | 1013.3 hPa | 0 mm | - | 756 W/m² | - |
| 1777653023 | 10° C | 80% | 1013.4 hPa | 0 mm | - | 202 W/m² | - |
| 1777652719 | 10° C | 83% | 1013.3 hPa | 0 mm | - | 259 W/m² | - |
| 1777652416 | 10° C | 84% | 1013.4 hPa | 0 mm | - | 159 W/m² | - |
| 1777652113 | 9.44° C | 90% | 1013.3 hPa | 0 mm | - | 295 W/m² | - |
| 1777651810 | 9.44° C | 90% | 1013.5 hPa | 0 mm | - | 104 W/m² | - |
| 1777651507 | 9.44° C | 90% | 1013.2 hPa | 0 mm | - | 164 W/m² | - |
| 1777651204 | 8.89° C | 95% | 1012.8 hPa | 0 mm | - | 422 W/m² | - |
| 1777650900 | 8.89° C | 97% | 1012.8 hPa | 0 mm | - | 105 W/m² | - |
| 1777650597 | 8.89° C | 97% | 1012.9 hPa | 0 mm | - | 64 W/m² | - |
| 1777650295 | 8.89° C | 97% | 1012.7 hPa | 0 mm | - | 35 W/m² | - |
| 1777649991 | 8.89° C | 97% | 1012.7 hPa | 0 mm | - | 108 W/m² | - |
| 1777649689 | 8.89° C | 97% | 1012.7 hPa | 0 mm | - | 76 W/m² | - |
| 1777649384 | 8.89° C | 97% | 1012.7 hPa | 0 mm | - | 50 W/m² | - |
| 1777649082 | 8.89° C | 97% | 1012.6 hPa | 0 mm | - | 69 W/m² | - |
| 1777648780 | 8.89° C | 98% | 1012.9 hPa | 0 mm | - | 100 W/m² | - |
| 1777648477 | 8.89° C | 98% | 1012.5 hPa | 0 mm | - | 154 W/m² | - |
| 1777648173 | 8.33° C | 98% | 1012.4 hPa | 0 mm | - | 183 W/m² | - |
| 1777647868 | 8.33° C | 98% | 1012.5 hPa | 0 mm | - | 80 W/m² | - |
| 1777647565 | 7.78° C | 98% | 1012.5 hPa | 0 mm | - | 59 W/m² | - |
| 1777647262 | 7.78° C | 97% | 1012.7 hPa | 0 mm | - | 35 W/m² | - |
| 1777646960 | 7.78° C | 97% | 1012.5 hPa | 0 mm | - | 26 W/m² | - |
| 1777646655 | 7.78° C | 97% | 1012.6 hPa | 0 mm | - | 23 W/m² | - |
* Rain latest hour (hover to see other rain measurements)
** Current wind speed in m/s (hover to see current wind gust speed)